Time,TemperatureF,DewpointF,PressureIn,WindDirection,WindDirectionDegrees,WindSpeedMPH,WindSpeedGustMPH,Humidity,HourlyPrecipIn,Conditions,Clouds,dailyrainin,SoftwareType,DateUTC
2013-12-04 00:02:00,49.0,-99.9,-100.00,SE,145,4.0,13.0,-999,-99.99,,,-99.99,,2013-12-04 05:02:00,
2013-12-04 00:23:00,49.0,-99.9,-100.00,ESE,120,2.0,8.0,-999,-99.99,,,-99.99,,2013-12-04 05:23:00,
2013-12-04 00:33:00,49.0,-99.9,-100.00,ESE,120,2.0,8.0,-999,-99.99,,,-99.99,,2013-12-04 05:33:00,
2013-12-04 00:42:00,49.0,-99.9,-100.00,ESE,120,2.0,8.0,-999,-99.99,,,-99.99,,2013-12-04 05:42:00,
2013-12-04 00:53:00,49.0,-99.9,-100.00,ESE,115,3.0,8.0,-999,-99.99,,,-99.99,,2013-12-04 05:53:00,
2013-12-04 01:03:00,49.0,-99.9,-100.00,ESE,115,3.0,8.0,-999,-99.99,,,-99.99,,2013-12-04 06:03:00,
2013-12-04 01:23:00,49.0,-99.9,-100.00,SSE,151,3.0,6.0,-999,-99.99,,,-99.99,,2013-12-04 06:23:00,
2013-12-04 01:32:00,49.0,-99.9,-100.00,SSE,151,3.0,6.0,-999,-99.99,,,-99.99,,2013-12-04 06:32:00,
2013-12-04 01:52:00,48.0,-99.9,-100.00,ESE,120,1.0,8.0,-999,-99.99,,,-99.99,,2013-12-04 06:52:00,
2013-12-04 02:12:00,48.0,-99.9,-100.00,ESE,120,1.0,8.0,-999,-99.99,,,-99.99,,2013-12-04 07:12:00,
2013-12-04 02:22:00,48.0,-99.9,-100.00,ESE,119,3.0,7.0,-999,-99.99,,,-99.99,,2013-12-04 07:22:00,
2013-12-04 02:42:00,48.0,-99.9,-100.00,SE,135,4.0,9.0,-999,-99.99,,,-99.99,,2013-12-04 07:42:00,
2013-12-04 03:12:00,48.0,-99.9,-100.00,SE,135,4.0,9.0,-999,-99.99,,,-99.99,,2013-12-04 08:12:00,
2013-12-04 03:22:00,47.0,-99.9,-100.00,ESE,118,3.0,8.0,-999,-99.99,,,-99.99,,2013-12-04 08:22:00,
2013-12-04 03:42:00,47.0,-99.9,-100.00,SE,132,3.0,8.0,-999,-99.99,,,-99.99,,2013-12-04 08:42:00,
2013-12-04 05:23:00,46.0,-99.9,-100.00,ESE,109,2.0,6.0,-999,-99.99,,,-99.99,,2013-12-04 10:23:00,
2013-12-04 05:34:00,46.0,-99.9,-100.00,ESE,109,2.0,6.0,-999,-99.99,,,-99.99,,2013-12-04 10:34:00,
2013-12-04 05:53:00,46.0,-99.9,-100.00,ESE,111,2.0,7.0,-999,-99.99,,,-99.99,,2013-12-04 10:53:00,
2013-12-04 06:12:00,46.0,-99.9,-100.00,ESE,111,2.0,7.0,-999,-99.99,,,-99.99,,2013-12-04 11:12:00,
2013-12-04 06:23:00,46.0,-99.9,-100.00,East,101,2.0,8.0,-999,-99.99,,,-99.99,,2013-12-04 11:23:00,
2013-12-04 06:42:00,46.0,-99.9,-100.00,East,99,3.0,8.0,-999,-99.99,,,-99.99,,2013-12-04 11:42:00,
2013-12-04 06:53:00,46.0,-99.9,-100.00,East,99,3.0,8.0,-999,-99.99,,,-99.99,,2013-12-04 11:53:00,
2013-12-04 07:22:00,46.0,-99.9,-100.00,ESE,106,2.0,6.0,-999,-99.99,,,-99.99,,2013-12-04 12:22:00,
2013-12-04 07:42:00,46.0,-99.9,-100.00,ESE,110,2.0,8.0,-999,-99.99,,,-99.99,,2013-12-04 12:42:00,
2013-12-04 08:22:00,47.0,-99.9,-100.00,ESE,122,2.0,6.0,-999,-99.99,,,-99.99,,2013-12-04 13:22:00,
2013-12-04 08:32:00,47.0,-99.9,-100.00,ESE,122,2.0,6.0,-999,-99.99,,,-99.99,,2013-12-04 13:32:00,
2013-12-04 08:52:00,47.0,-99.9,-100.00,SE,130,1.0,7.0,-999,-99.99,,,-99.99,,2013-12-04 13:52:00,
2013-12-04 09:12:00,47.0,-99.9,-100.00,SE,130,1.0,7.0,-999,-99.99,,,-99.99,,2013-12-04 14:12:00,
2013-12-04 09:22:00,47.0,-99.9,-100.00,ESE,116,2.0,6.0,-999,-99.99,,,-99.99,,2013-12-04 14:22:00,
2013-12-04 09:32:00,47.0,-99.9,-100.00,ESE,116,2.0,6.0,-999,-99.99,,,-99.99,,2013-12-04 14:32:00,
2013-12-04 09:52:00,47.0,-99.9,-100.00,SSE,149,1.0,8.0,-999,-99.99,,,-99.99,,2013-12-04 14:52:00,
2013-12-04 10:02:00,47.0,-99.9,-100.00,SSE,149,1.0,8.0,-999,-99.99,,,-99.99,,2013-12-04 15:02:00,
2013-12-04 10:22:00,48.0,-99.9,-100.00,South,169,3.0,11.0,-999,-99.99,,,-99.99,,2013-12-04 15:22:00,
2013-12-04 10:33:00,48.0,-99.9,-100.00,South,169,3.0,11.0,-999,-99.99,,,-99.99,,2013-12-04 15:33:00,
2013-12-04 10:54:00,48.0,-99.9,-100.00,SSE,149,4.0,11.0,-999,-99.99,,,-99.99,,2013-12-04 15:54:00,
2013-12-04 11:13:00,48.0,-99.9,-100.00,SSE,149,4.0,11.0,-999,-99.99,,,-99.99,,2013-12-04 16:13:00,
2013-12-04 11:23:00,49.0,-99.9,-100.00,East,101,2.0,7.0,-999,-99.99,,,-99.99,,2013-12-04 16:23:00,
2013-12-04 11:43:00,49.0,-99.9,-100.00,South,185,3.0,9.0,-999,-99.99,,,-99.99,,2013-12-04 16:43:00,
2013-12-04 12:22:00,50.0,-99.9,-100.00,SSE,164,3.0,8.0,-999,-99.99,,,-99.99,,2013-12-04 17:22:00,
2013-12-04 12:43:00,50.0,-99.9,-100.00,SE,133,2.0,10.0,-999,-99.99,,,-99.99,,2013-12-04 17:43:00,
2013-12-04 12:53:00,50.0,-99.9,-100.00,SE,133,2.0,10.0,-999,-99.99,,,-99.99,,2013-12-04 17:53:00,
2013-12-04 13:13:00,50.0,-99.9,-100.00,SE,133,2.0,10.0,-999,-99.99,,,-99.99,,2013-12-04 18:13:00,
2013-12-04 13:22:00,52.0,-99.9,-100.00,ESE,108,2.0,7.0,-999,-99.99,,,-99.99,,2013-12-04 18:22:00,
2013-12-04 13:42:00,50.0,-99.9,-100.00,SE,133,2.0,10.0,-999,-99.99,,,-99.99,,2013-12-04 18:42:00,
2013-12-04 14:00:00,53.0,-99.9,-100.00,SE,142,4.0,9.0,-999,-99.99,,,-99.99,,2013-12-04 19:00:00,
2013-12-04 14:12:00,53.0,-99.9,-100.00,ESE,122,3.0,9.0,-999,-99.99,,,-99.99,,2013-12-04 19:12:00,
2013-12-04 14:22:00,53.0,-99.9,-100.00,SE,142,4.0,9.0,-999,-99.99,,,-99.99,,2013-12-04 19:22:00,
2013-12-04 14:32:00,53.0,-99.9,-100.00,SE,142,4.0,9.0,-999,-99.99,,,-99.99,,2013-12-04 19:32:00,
2013-12-04 14:42:00,53.0,-99.9,-100.00,SE,142,4.0,9.0,-999,-99.99,,,-99.99,,2013-12-04 19:42:00,
2013-12-04 14:52:00,53.0,-99.9,-100.00,SE,142,4.0,9.0,-999,-99.99,,,-99.99,,2013-12-04 19:52:00,
2013-12-04 15:00:00,54.0,-99.9,-100.00,SE,125,3.0,11.0,-999,-99.99,,,-99.99,,2013-12-04 20:00:00,
2013-12-04 15:22:00,54.0,-99.9,-100.00,SE,125,3.0,11.0,-999,-99.99,,,-99.99,,2013-12-04 20:22:00,
2013-12-04 15:32:00,54.0,-99.9,-100.00,SE,125,3.0,11.0,-999,-99.99,,,-99.99,,2013-12-04 20:32:00,
2013-12-04 15:42:00,54.0,-99.9,-100.00,SE,125,3.0,11.0,-999,-99.99,,,-99.99,,2013-12-04 20:42:00,
2013-12-04 15:52:00,54.0,-99.9,-100.00,SE,125,3.0,11.0,-999,-99.99,,,-99.99,,2013-12-04 20:52:00,
2013-12-04 16:22:00,54.0,-99.9,-100.00,SE,130,5.0,8.0,-999,-99.99,,,-99.99,,2013-12-04 21:22:00,
2013-12-04 16:33:00,54.0,-99.9,-100.00,SE,130,5.0,8.0,-999,-99.99,,,-99.99,,2013-12-04 21:33:00,
2013-12-04 17:14:00,54.0,-99.9,-100.00,SSE,153,3.0,13.0,-999,-99.99,,,-99.99,,2013-12-04 22:14:00,
2013-12-04 17:23:00,53.0,-99.9,-100.00,SE,135,3.0,7.0,-999,-99.99,,,-99.99,,2013-12-04 22:23:00,
2013-12-04 17:43:00,54.0,-99.9,-100.00,SSE,153,3.0,13.0,-999,-99.99,,,-99.99,,2013-12-04 22:43:00,
2013-12-04 17:53:00,54.0,-99.9,-100.00,South,178,2.0,13.0,-999,-99.99,,,-99.99,,2013-12-04 22:53:00,
2013-12-04 18:12:00,54.0,-99.9,-100.00,South,178,2.0,13.0,-999,-99.99,,,-99.99,,2013-12-04 23:12:00,
2013-12-04 18:22:00,55.0,-99.9,-100.00,SSE,152,4.0,8.0,-999,-99.99,,,-99.99,,2013-12-04 23:22:00,
2013-12-04 18:33:00,55.0,-99.9,-100.00,SSE,152,4.0,8.0,-999,-99.99,,,-99.99,,2013-12-04 23:33:00,
2013-12-04 19:11:00,55.0,-99.9,-100.00,SE,144,4.0,10.0,-999,-99.99,,,-99.99,,2013-12-05 00:11:00,
2013-12-04 19:22:00,57.0,-99.9,-100.00,SSE,149,6.0,16.0,-999,-99.99,,,-99.99,,2013-12-05 00:22:00,
2013-12-04 19:32:00,57.0,-99.9,-100.00,SSE,149,6.0,16.0,-999,-99.99,,,-99.99,,2013-12-05 00:32:00,
2013-12-04 19:52:00,57.0,-99.9,-100.00,SSE,151,6.0,16.0,-999,-99.99,,,-99.99,,2013-12-05 00:52:00,
2013-12-04 20:12:00,57.0,-99.9,-100.00,SSE,151,6.0,16.0,-999,-99.99,,,-99.99,,2013-12-05 01:12:00,
2013-12-04 20:22:00,58.0,-99.9,-100.00,SSE,165,9.0,13.0,-999,-99.99,,,-99.99,,2013-12-05 01:22:00,
2013-12-04 20:32:00,58.0,-99.9,-100.00,SSE,165,9.0,13.0,-999,-99.99,,,-99.99,,2013-12-05 01:32:00,
2013-12-04 20:42:00,58.0,-99.9,-100.00,SSE,165,9.0,13.0,-999,-99.99,,,-99.99,,2013-12-05 01:42:00,
2013-12-04 20:52:00,58.0,-99.9,-100.00,SSE,164,11.0,18.0,-999,-99.99,,,-99.99,,2013-12-05 01:52:00,
2013-12-04 21:11:00,59.0,-99.9,-100.00,South,180,17.0,29.0,-999,-99.99,,,-99.99,,2013-12-05 02:11:00,
2013-12-04 21:22:00,57.0,-99.9,-100.00,South,181,19.0,24.0,-999,-99.99,,,-99.99,,2013-12-05 02:22:00,
2013-12-04 22:00:00,53.0,-99.9,-100.00,South,184,17.0,23.0,-999,-99.99,,,-99.99,,2013-12-05 03:00:00,
2013-12-04 22:12:00,53.0,-99.9,-100.00,South,181,16.0,0.0,-999,-99.99,,,-99.99,,2013-12-05 03:12:00,
2013-12-04 22:22:00,53.0,-99.9,-100.00,South,184,17.0,23.0,-999,-99.99,,,-99.99,,2013-12-05 03:22:00,
2013-12-04 22:33:00,53.0,-99.9,-100.00,South,184,17.0,23.0,-999,-99.99,,,-99.99,,2013-12-05 03:33:00,
2013-12-04 22:43:00,53.0,-99.9,-100.00,South,184,17.0,23.0,-999,-99.99,,,-99.99,,2013-12-05 03:43:00,
2013-12-04 22:54:00,53.0,-99.9,-100.00,South,184,17.0,23.0,-999,-99.99,,,-99.99,,2013-12-05 03:54:00,
2013-12-04 23:23:00,53.0,-99.9,-100.00,South,180,16.0,19.0,-999,-99.99,,,-99.99,,2013-12-05 04:23:00,
2013-12-04 23:34:00,53.0,-99.9,-100.00,South,180,16.0,19.0,-999,-99.99,,,-99.99,,2013-12-05 04:34:00,
2013-12-04 23:43:00,53.0,-99.9,-100.00,South,180,16.0,19.0,-999,-99.99,,,-99.99,,2013-12-05 04:43:00,
2013-12-04 23:53:00,52.0,-99.9,-100.00,South,184,12.0,22.0,-999,-99.99,,,-99.99,,2013-12-05 04:53:00,